Weather in Kataisk

Russia / Kurgan Oblast     56°16′59″N   62°35′01″E
temp.,
°C
wind,
m/s
gust,
m/s
humid.,
%
clouds,
%
prec.,
mm/h
press.,
hPa
HPBL,
m
19 april, mon
mon1923:00−2ne59400 0.0 1031864
02:00−3ne48440 0.0 1033999
05:00−3ne36480 0.0 1034630
08:00−3ne46390 0.0 10351016
11:000ne463441 0.0 10351719
14:00+2nne4531100 0.0 10342122
17:00+3nne3528100 0.0 10332204
20:00+1ne11395 0.0 103310
20 april, tue
tue2023:00−1ene36505 0.0 1034127
02:00−2ese22470 0.0 103425
05:00−2sw11445 0.0 103510
08:00+1wsw23375 0.0 1034318
11:00+5w45325 0.0 10321327
14:00+8wnw57295 0.0 10301768
17:00+9nw67280 0.0 10291766
20:00+6wnw35470 0.0 102870
21 april, wed
wed2123:00+4wnw49610 0.0 1029170
02:00+2nw48710 0.0 1029153
05:00+1nw36770 0.0 103095
08:00+4nnw35650 0.0 1031239
11:00+9nnw33491 0.0 1031897
14:00+11n23395 0.0 10311607
17:00+12ene11374 0.0 10311668
20:00+10ese22485 0.0 103222
22 april, thu
thu2223:00+7se5116843 0.0 1034295
02:00+5se5117430 0.0 1034269
05:00+4sse498098 0.0 1035177
08:00+7sse476763 0.0 1035289
11:00+12s6742100 0.0 10351134
14:00+14s7833100 0.0 10341683
17:00+14s6832100 0.0 10331789
20:00+11s4744100 0.0 1034138
23 april, fri
fri2323:00+10s41051100 0.0 1033245
02:00+8s3761100 0.0 1033134
05:00+6s4867100 0.0 1033136
08:00+9s4958100 0.0 1033315
11:00+13ssw6843100 0.0 1032949
14:00+14s6839100 0.0 10311766
17:00+14s5843100 0.0 10301849
20:00+11sse494996 0.0 1030224